Regional Weather Roundup
Issued by NWS

Home | Current Version | Previous Version | Text Only | Print | Product List | Glossary On
Versions: 1 2 3 4 5 6 7 8 9 10 11 12 13 14 15 16 17 18 19 20 21 22 23 24 25 26 27 28 29 30 31 32 33 34 35 36 37 38 39 40
000
ASUS42 KTBW 221410
RWRFL
FLORIDA REGIONAL WEATHER ROUNDUP
NATIONAL WEATHER SERVICE TAMPA BAY RUSKIN FL
1000 AM EDT WED OCT 22 2014

NOTE: "FAIR" INDICATES FEW OR NO CLOUDS BELOW 12,000 FEET WITH NO
SIGNIFICANT WEATHER AND/OR OBSTRUCTIONS TO VISIBILITY.


FLZ001>010-012>015-112-114-115-221500-
PANHANDLE FLORIDA

CITY           SKY/WX    TMP DP  RH WIND       PRES   REMARKS
PENSACOLA      SUNNY     66  53  63 NE8       30.08R
PENSACOLA NAS  SUNNY     67  56  67 NE9       30.07R
MILTON NAS     SUNNY     62  52  69 NE12      30.10R
CRESTVIEW      SUNNY     64  53  67 NE7       30.11R
DUKE FIELD     SUNNY     62  53  71 NE6       30.09R
VALPARAISO     MOSUNNY   66  52  60 N7        30.08R
MARY ESTHER    SUNNY     67  49  52 NE8       30.07R
PANAMA CITY    FAIR      66  54  65 NE9       30.06R
TYNDALL AFB    SUNNY     66  55  67 NE10      30.06R
APALACHICOLA   SUNNY     70  53  54 NE9       30.05R

STATION/POSITION SKY/WX   TEMP    WIND        PRES    WAVE   SWELL
                          AIR SEA DIR/SP/G            HT/PER HT/PER
                          (F)     (DEG/KT/KT) (MB)    (FT/S) (FT/S)
30.1N   87.6W              71 78   40/ 16/ 19 1017.4R   2/ 4
29.2N   88.2W              75 79   50/ 16/ 17 1018.0R   3/ 4
28.8N   86.0W              76 81   50/ 16/ 19 1016.6R   4/ 4
PANAMA CITY BEAC           65 77   50/ 11/ 17 1017.8S
CAPE SAN BLAS    NOT AVBL
TOWER C                    71      50/ 16/ 18 1016.9R
28.5N   84.5W              77 81   50/ 14/ 17 1016.1R   2/ 4

$$
FLZ011-016>038-118-127-128-134-139-239-221500-
NORTH FLORIDA

CITY           SKY/WX    TMP DP  RH WIND       PRES   REMARKS
MARIANNA       LGT RAIN  64  54  69 N8        30.08R
TALLAHASSEE    MOSUNNY   68  50  52 N6        30.06R
PERRY          SUNNY     64  52  63 NE7       30.06R
CROSS CITY       N/A     67  54  63 NE9       30.04R
LAKE CITY      FAIR      63  54  72 NE7       30.05R
GAINESVILLE    SUNNY     67  54  63 N5        30.04R
MAYPORT NAS    MOSUNNY   68  58  70 VRB5      30.03R
JACKSONVILLE   SUNNY     62  55  77 N9        30.03R
JAX NAS        MOSUNNY   67  52  58 N10       30.03R
JAX CRAIG      SUNNY     66  55  67 VRB5      30.03R
JAX CECIL      SUNNY     63  55  77 N10       30.04R
FERNANDINA BEA FAIR      72  61  68 N8        30.02R
ST AUGUSTINE   SUNNY     69  61  75 N7        30.03R

STATION/POSITION SKY/WX   TEMP    WIND        PRES    WAVE   SWELL
                          AIR SEA DIR/SP/G            HT/PER HT/PER
                          (F)     (DEG/KT/KT) (MB)    (FT/S) (FT/S)
SHELL POINT                61      20/  5/  9   N/A
KEATON BEACH               65      40/  8/ 13 1017.6R
CEDAR KEY                  67      40/ 10/ 13 1017.2R
FERNANDINA                 65 76   10/  7/ 11 1016.4R
30.7N   81.3W                 78                N/A     3/ 4
MAYPORT                    65 78  350/  7/  9   N/A
31.4N   80.9W              65 76   20/ 19/ 25 1016.5R   4/ 5
ST AUGUSTINE               69     340/  9/ 10 1017.0R

$$
FLZ040-043>046-052-053-057-058-063-144-221500-
INTERIOR CENTRAL FLORIDA

CITY           SKY/WX    TMP DP  RH WIND       PRES   REMARKS
OCALA          SUNNY     68  55  64 N6        30.03R
THE VILLAGES     N/A     70  59  68 N12       29.93R
LEESBURG       SUNNY     72  59  63 N9        30.02R
SANFORD        SUNNY     73  61  65 N8        30.00R
ORLANDO EXEC   SUNNY     77  63  61 N7        30.00R
ORLANDO INTL   MOSUNNY   76  62  62 N7        30.00R
KISSIMMEE      SUNNY     75  66  73 N5        30.01R
WINTER HAVEN   SUNNY     75  65  70 NE8       30.02R
LAKELAND       MOSUNNY   73  64  73 NE5       30.01R
BARTOW         MOSUNNY   73  66  78 NE6       30.01R
OKEECHOBEE     CLOUDY    70  70 100 MISG        N/A

$$
FLZ041-047-054-059-064-141-147-221500-
EAST CENTRAL FLORIDA

CITY           SKY/WX    TMP DP  RH WIND       PRES   REMARKS
ORMOND BEACH   SUNNY     70  64  83 NW6       30.01R
DAYTONA BEACH  MOSUNNY   72  62  71 N6        30.01R
DELAND         SUNNY     72  59  64 NW6       30.02R
NEW SMYRNA BEA SUNNY     73  66  78 NW5       30.01R
JFK SPACE CTR  SUNNY     75  70  85 N6        29.99R
TITUSVILLE     MOSUNNY   73  66  78 NW6       29.99R
CAPE CANAVERAL SUNNY     76  66  71 NW7       29.98R
PATRICK AFB    SUNNY     75  71  87 NW9       29.99R
MELBOURNE      MOSUNNY   76  70  82 NW6       29.99R
VERO BEACH     CLOUDY    70  69  97 NW3       30.00R
FT PIERCE      CLOUDY    73  70  90 CALM      29.99R
STUART         MOSUNNY   73  70  88 W6        30.00R

STATION/POSITION SKY/WX   TEMP    WIND        PRES    WAVE   SWELL
                          AIR SEA DIR/SP/G            HT/PER HT/PER
                          (F)     (DEG/KT/KT) (MB)    (FT/S) (FT/S)
28.5N   80.2W              78 83  340/ 10/ 12 1015.0R
28.9N   78.5W              78 80  360/  6/  8 1014.7R   2/11   2/11
TRIDENT PIER               75 80  310/  6/  9 1014.9S
28.4N   80.5W                 80                N/A     1/12
27.6N   80.2W                 80                N/A     2/11   2/11

$$
FLZ050-056-061-142-242-148-248-149-249-151-251-155-255-
160-260-221500-
WEST CENTRAL FLORIDA

CITY           SKY/WX    TMP DP  RH WIND       PRES   REMARKS
CRYSTAL RIVER  FAIR      70  55  60 NE7       30.03R
INVERNESS      FAIR      70  59  68 N7        30.03R
BROOKSVILLE    SUNNY     73  59  61 NE8       30.02R
ZEPHYRHILLS    FAIR      72  64  78 N7        30.02R
CLEARWATER     SUNNY     75  60  59 NE8       30.00R
TAMPA INTL     MOSUNNY   75  56  51 NE7       30.01R
TAMPA EXEC     SUNNY     77  63  61 NE5       30.01R
PLANT CITY     SUNNY     75  63  64 NE3       30.02S
MACDILL AFB    SUNNY     75  67  77 E13       30.00R
ST PETERSBURG  SUNNY     76  64  66 E14       29.99R
SARASOTA       SUNNY     75  67  76 NE10      29.98R
VENICE           N/A     73  68  83 MISG      30.00R

STATION/POSITION SKY/WX   TEMP    WIND        PRES    WAVE   SWELL
                          AIR SEA DIR/SP/G            HT/PER HT/PER
                          (F)     (DEG/KT/KT) (MB)    (FT/S) (FT/S)
CEDAR KEY                  67      40/ 10/ 13 1017.2R
28.5N   84.5W              77 81   50/ 14/ 17 1016.1R   2/ 4
27.3N   84.3W                 82                N/A     2/ 4
CLEARWATER BEACH NOT AVBL
MIDDLE TAMPA BAY           74      80/ 10/ 13 1016.0S
VENICE                     74 80   70/  8/ 10 1015.3R

$$
FLZ066-069-070-075>078-162-262-165-265-221500-
SOUTHWEST FLORIDA AND KEYS

CITY           SKY/WX    TMP DP  RH WIND       PRES   REMARKS
PUNTA GORDA    PTSUNNY   73  71  93 NE6       30.01S
FT MYERS       CLOUDY    75  72  90 E5        29.97S
SOUTHWEST INTL CLOUDY    72  71  97 E3        29.98S
NAPLES         CLOUDY    78  72  81 CALM      29.97S
MARATHON       CLOUDY    76  72  87 SE8       29.97R
KEY WEST NAS   CLOUDY    79  75  87 E9        29.95S
KEY WEST INTL  CLOUDY    81  78  91 NE8       29.95S

STATION/POSITION SKY/WX   TEMP    WIND        PRES    WAVE   SWELL
                          AIR SEA DIR/SP/G            HT/PER HT/PER
                          (F)     (DEG/KT/KT) (MB)    (FT/S) (FT/S)
VENICE                     74 80   70/  8/ 10 1015.3R
NAPLES                     76 82   80/  2/  3 1015.5S
26.0N   85.6W              79 83   70/ 17/ 21 1014.4R   3/ 6
DRY TORTUGAS               81      90/ 10/ 11 1013.4R
NW FL BAY                  78      50/  7/  8 1014.3R
SAND KEY                   80      60/ 12/ 13 1014.0R
SOMBRERO KEY               79      60/  9/ 10 1015.1R
LONG KEY                   78 79   40/  6/  6 1015.4R
MOLASSES REEF              79 83   40/  7/  8 1014.7R

$$
FLZ067-068-071>074-168-172>174-221500-
SOUTHEAST FLORIDA

CITY           SKY/WX    TMP DP  RH WIND       PRES   REMARKS
W PALM BEACH   CLOUDY    74  72  93 N6        29.97S
FT LAUDER-EXEC CLOUDY    78  71  79 NW5       29.97R
FT LAUDERDALE  CLOUDY    78  72  81 N5        29.97R
POMPANO BEACH  CLOUDY    79  72  79 N8        29.98R
PEMBROKE PINES CLOUDY    78  72  81 CALM      29.98S
OPA LOCKA      CLOUDY    79  69  71 NW5       29.97S
MIAMI          CLOUDY    81  69  67 NW5       29.97S
WEST KENDALL   CLOUDY    82  72  71 CALM      29.97S
HOMESTEAD      CLOUDY    80  71  74 N6        29.97R

STATION/POSITION SKY/WX   TEMP    WIND        PRES    WAVE   SWELL
                          AIR SEA DIR/SP/G            HT/PER HT/PER
                          (F)     (DEG/KT/KT) (MB)    (FT/S) (FT/S)
PORT EVERGLADES            77     320/  4/  5 1014.9
VIRGINIA KEY               80 80   40/  2/  4 1015.2F
LAKE WORTH                 74 82  320/  7/  8 1014.8S
FOWEY ROCKS                80 81  360/  8/  9 1015.2R
SETTLEMENT POINT           78     100/  7/  8 1015.8R

$$




USA.gov is the U.S. government's official web portal to all federal, state and local government web resources and services.